Content
SEND FEEDBACK

Daily
Averages
Monthly
Summary
United States of America

AGAWAM, MASSACHUSETTS


Home > North America > United States > Massachusetts
Elevation: 39 meters     Latitude: 42 06N     Longitude: 072 35W

WEATHER
 
SELECT A DAY
Number of Records: 222,384;   Date Range: 11/7/95 - 4/19/14
 
SHARE

PRINT THIS DATA

[ ← Previous Day ]
WEATHER ALMANAC - 13 FEBRUARY, 2013
[ Next Day → ]
[ °F ]   °C
Weather ElementAverageHighLow
Temperature-0.8 °C2.8 °C (1:54 pm)-4.4 °C (9:54 pm)
Dewpoint-8 °C-6.7 °C (12:54 am)-9.4 °C (1:54 pm)
Humidity59.7 %75 % (9:54 pm)41 % (1:54 pm)
Barometer1009.5 hPa1011.2 hPa (4:54 am)1007.8 hPa (5:54 pm)
Wind Speed2.4 km/h13 km/h (12:54 am)
Weather ElementAverage
Visibility15.9 km
Wind DirectionNE (48.3 °)

Weather ElementTotal
Precipitation---
Heating Degree Days19.2 (Base 18.3)
Averaged from 23 records on 13 February, 2013
WEATHER CONDITIONS BREAKOUT
WIND DIRECTION BREAKOUT
WEATHER BY HOUR - 13 FEBRUARY, 2013
[ °F ]   °C
Local TimeTemperatureDewpointHumidityBarometerVisibilityWind DirectionWind SpeedGust SpeedPrecipitationEventsConditions
12:54 AM0.6 °C-6.7 °C59 %1010.5 hPa16.1 kmSW (230°)13 km/hOvercast
1:54 AM-0.6 °C-6.7 °C64 %1010.5 hPa16.1 kmCalmOvercast
3:54 AM0 °C-7.8 °C56 %1010.8 hPa16.1 kmCalmOvercast
4:54 AM-1.1 °C-7.8 °C61 %1011.2 hPa16.1 kmCalmMostly Cloudy
5:54 AM-3.9 °C-8.3 °C72 %1010.8 hPa16.1 kmCalmMostly Cloudy
6:54 AM-3.3 °C-8.3 °C69 %1010.8 hPa16.1 kmCalmScattered Clouds
7:54 AM-2.8 °C-7.8 °C69 %1011.2 hPa16.1 kmCalmOvercast
8:54 AM0 °C-7.2 °C59 %1011.2 hPa16.1 kmCalmOvercast
9:54 AM0.6 °C-7.2 °C56 %1010.8 hPa16.1 kmCalmMostly Cloudy
10:54 AM1.1 °C-7.8 °C52 %1010.5 hPa16.1 kmWNW (300°)13 km/hOvercast
11:54 AM1.7 °C-8.3 °C48 %1010.2 hPa16.1 kmVariable5.6 km/hOvercast
12:54 PM2.2 °C-8.9 °C44 %1009.5 hPa16.1 kmCalmOvercast
1:54 PM2.8 °C-9.4 °C41 %1009.1 hPa16.1 kmVariable5.6 km/hOvercast
2:54 PM2.2 °C-8.9 °C44 %1008.5 hPa16.1 kmCalmOvercast
3:54 PM2.2 °C-8.3 °C46 %1008.1 hPa16.1 kmCalmOvercast
4:54 PM1.7 °C-8.3 °C48 %1008.5 hPa16.1 kmWSW (240°)11.1 km/hOvercast
5:54 PM-0.6 °C-8.3 °C57 %1007.8 hPa16.1 kmCalmScattered Clouds
6:54 PM-2.8 °C-8.3 °C66 %1008.1 hPa16.1 kmCalmClear
7:54 PM-3.3 °C-8.3 °C69 %1007.8 hPa16.1 kmNNW (340°)5.6 km/hClear
8:54 PM-3.3 °C-8.3 °C69 %1008.5 hPa16.1 kmCalmClear
9:54 PM-4.4 °C-8.3 °C75 %1008.1 hPa16.1 kmCalmClear
10:54 PM-3.9 °C-7.8 °C75 %1007.8 hPa16.1 kmCalmScattered Clouds
11:54 PM-3.9 °C-7.8 °C75 %1007.8 hPa12.9 kmCalmOvercast
Hourly data recorded from KVSF, located 1.85 kilometers away from Agawam, Massachusetts







STORIES FROM OUR PARTNERS